User: anonymous
Location: Unspecified
(0.0000°N, 0.0000°E)
Time: 06:59:55
(UTC+02:00)
Language:

Iridium 33 - Orbit

View from above orbital plane
View from above orbital plane
View from above satellite
View from above satellite

Ground track
Ground track

The orbit data is extracted from the following two-line orbital elements,

1 24946U 97051C   14210.45238811  .00000237  00000-0  79080-4 0    77
2 24946 086.3891 007.6461 0009907 082.3881 329.8177 14.33162260883094
Epoch (UTC): 29 July 2014 10:51:26
Eccentricity: 0.0009907
inclination: 86.3891°
perigee height: 774 km
apogee height: 788 km
right ascension of ascending node: 7.6461°
argument of perigee: 82.3881°
revolutions per day: 14.33162260
mean anomaly at epoch: 329.8177°
orbit number at epoch: 88309

The dashed part of the orbit path shows where the satellite is in the earth's shadow,  

DLR